Location: Unspecified
(38.9820°N, 94.4650°W)
Time: 05:28:29
(UTC-05:00)

Okean 3 - Visible Passes

Search period start: 23 April 2014 00:00
Search period end: 03 May 2014 00:00
Orbit: 583 x 612 km, 82.5° (Epoch: 22 April)

Date Brightness Start Highest point End Pass type
(mag) Time Alt. Az. Time Alt. Az. Time Alt. Az.
23 Apr 3.9 20:59:33 10° SSE 21:03:33 41° E 21:07:33 10° NNE visible
23 Apr 6.4 22:38:44 10° WSW 22:41:09 15° WNW 22:43:34 10° NW visible
24 Apr 3.4 21:09:54 10° S 21:14:08 69° E 21:18:22 10° NNE visible
25 Apr 3.7 21:20:31 10° SSW 21:24:46 71° W 21:29:00 10° N visible
26 Apr 4.7 21:31:24 10° SSW 21:35:26 42° W 21:39:29 10° N visible
27 Apr 5.7 21:42:35 10° SW 21:46:10 26° WNW 21:49:45 10° NNW visible
28 Apr 6.4 21:54:10 10° WSW 21:56:56 17° WNW 21:59:42 10° NNW visible
29 Apr 6.9 22:06:58 10° W 22:07:46 10° WNW 22:08:34 10° WNW visible
30 Apr 3.6 20:36:19 10° S 20:40:33 84° W 20:44:47 10° N visible
01 May 4.6 20:47:05 10° SSW 20:51:11 49° W 20:55:18 10° N visible
02 May 5.6 20:58:08 10° SW 21:01:52 30° WNW 21:05:37 10° NNW visible
